CW1575 Weather Reports


Display with metric or nautical units.
time (UTC)temp
F
wind
direction
speed
MPH
gust
MPH
rain 1hr
in
rain 24hr
in
rain mn
in
humidity
%
barometer
mb
20260508235505 71 0 0.0 3.0 0.00 0.00 0.00 35 1004.4
20260508235004 71 0 2.0 8.0 0.00 0.00 0.00 35 1004.4
20260508234004 71 0 1.0 3.0 0.00 0.00 0.00 35 1004.4
20260508233004 71 0 2.0 5.0 0.00 0.00 0.00 34 1004.5
20260508231504 71 0 2.0 3.0 0.00 0.00 0.00 34 1004.3
20260508231004 71 0 2.0 9.0 0.00 0.00 0.00 35 1004.3
20260508230504 71 0 5.0 8.0 0.00 0.00 0.00 35 1004.4
20260508230005 71 0 4.0 6.0 0.00 0.00 0.00 35 1004.5
20260508225504 70 0 2.0 8.0 0.00 0.00 0.00 34 1004.4
20260508224504 70 0 1.0 3.0 0.00 0.00 0.00 36 1004.6
20260508224004 71 0 2.0 5.0 0.00 0.00 0.00 35 1004.7
20260508222504 71 0 1.0 10.0 0.00 0.00 0.00 35 1004.7
20260508222004 71 0 2.0 10.0 0.00 0.00 0.00 34 1004.7
20260508221504 72 0 3.0 6.0 0.00 0.00 0.00 34 1004.9
20260508221005 72 0 2.0 5.0 0.00 0.00 0.00 35 1005.0
20260508220504 71 0 2.0 8.0 0.00 0.00 0.00 36 1004.9
20260508220004 71 0 0.0 3.0 0.00 0.00 0.00 36 1004.9
20260508215004 71 0 3.0 13.0 0.00 0.00 0.00 37 1004.9
20260508214504 71 0 1.0 3.0 0.00 0.00 0.00 36 1005.0
20260508214004 70 0 3.0 8.0 0.00 0.00 0.00 38 1005.0
20260508213504 70 0 3.0 6.0 0.00 0.00 0.00 38 1005.0
20260508213004 70 0 0.0 3.0 0.00 0.00 0.00 38 1005.2
20260508212005 70 0 2.0 6.0 0.00 0.00 0.00 38 1005.3
20260508211504 70 0 2.0 8.0 0.00 0.00 0.00 38 1005.4
20260508211004 71 0 4.0 8.0 0.00 0.00 0.00 37 1005.3
20260508210504 71 0 4.0 8.0 0.00 0.00 0.00 38 1005.4
20260508210004 71 0 1.0 3.0 0.00 0.00 0.00 37 1005.5
20260508205504 71 0 0.0 9.0 0.00 0.00 0.00 38 1005.5
20260508205004 71 0 2.0 6.0 0.00 0.00 0.00 38 1005.7
20260508204504 70 0 3.0 6.0 0.00 0.00 0.00 38 1005.8
20260508204005 70 0 3.0 9.0 0.00 0.00 0.00 41 1005.8
20260508203504 70 0 5.0 13.0 0.00 0.00 0.00 39 1005.8
20260508203004 70 0 1.0 5.0 0.00 0.00 0.00 38 1005.8
20260508202504 70 0 3.0 6.0 0.00 0.00 0.00 39 1005.9
20260508202004 70 0 3.0 10.0 0.00 0.00 0.00 39 1005.9
20260508201504 70 0 2.0 5.0 0.00 0.00 0.00 38 1006.1
20260508201004 70 0 2.0 9.0 0.00 0.00 0.00 40 1006.3
20260508200504 70 0 1.0 5.0 0.00 0.00 0.00 38 1006.4
20260508195504 69 0 2.0 6.0 0.00 0.00 0.00 40 1006.7
20260508194504 69 0 1.0 3.0 0.00 0.00 0.00 40 1006.7
20260508194004 69 0 1.0 3.0 0.00 0.00 0.00 39 1006.9
20260508193005 69 0 2.0 5.0 0.00 0.00 0.00 40 1007.1
20260508192504 68 0 1.0 3.0 0.00 0.00 0.00 39 1007.1
20260508191504 68 0 1.0 6.0 0.00 0.00 0.00 41 1007.3
20260508191005 68 0 2.0 5.0 0.00 0.00 0.00 40 1007.3
20260508190504 68 0 1.0 3.0 0.00 0.00 0.00 41 1007.2
20260508190004 68 0 1.0 3.0 0.00 0.00 0.00 40 1007.4
20260508185504 68 0 3.0 6.0 0.00 0.00 0.00 39 1007.5
20260508185004 68 0 2.0 8.0 0.00 0.00 0.00 40 1007.5
20260508184504 68 0 1.0 6.0 0.00 0.00 0.00 42 1007.6
20260508183504 68 0 1.0 6.0 0.00 0.00 0.00 40 1007.6
20260508183004 68 0 3.0 8.0 0.00 0.00 0.00 41 1007.7
20260508182504 68 0 5.0 10.0 0.00 0.00 0.00 39 1007.7
20260508182004 68 0 1.0 8.0 0.00 0.00 0.00 39 1007.8
20260508180504 67 0 1.0 9.0 0.00 0.00 0.00 43 1007.9
20260508180004 67 0 5.0 12.0 0.00 0.00 0.00 41 1007.9
20260508175003 67 0 2.0 8.0 0.00 0.00 0.00 40 1007.9
20260508174004 67 0 2.0 10.0 0.00 0.00 0.00 42 1008.0
20260508173504 67 0 2.0 10.0 0.00 0.00 0.00 42 1008.0
20260508172504 66 0 2.0 8.0 0.00 0.00 0.00 42 1008.1
20260508172004 66 0 3.0 13.0 0.00 0.00 0.00 44 1008.1
20260508171504 66 0 1.0 5.0 0.00 0.00 0.00 48 1008.0
20260508171004 65 0 2.0 5.0 0.00 0.00 0.00 46 1008.0
20260508170504 65 0 3.0 6.0 0.00 0.00 0.00 44 1008.1
20260508170004 65 0 2.0 6.0 0.00 0.00 0.00 45 1008.2
20260508165504 64 0 2.0 8.0 0.00 0.00 0.00 47 1008.1
20260508165005 64 0 1.0 10.0 0.00 0.00 0.00 48 1008.1
20260508164504 64 0 1.0 5.0 0.00 0.00 0.00 48 1008.1
20260508164004 63 0 2.0 6.0 0.00 0.00 0.00 50 1008.1
20260508163504 62 0 1.0 3.0 0.00 0.00 0.00 51 1008.3
20260508163004 62 0 2.0 5.0 0.00 0.00 0.00 51 1008.2
20260508162504 62 0 2.0 3.0 0.00 0.00 0.00 50 1008.4
20260508162004 62 0 4.0 6.0 0.00 0.00 0.00 50 1008.4
20260508161504 61 0 0.0 3.0 0.00 0.00 0.00 53 1008.5
20260508161004 60 0 2.0 5.0 0.00 0.00 0.00 54 1008.5
20260508160503 60 0 3.0 6.0 0.00 0.00 0.00 53 1008.6
20260508160004 60 0 1.0 6.0 0.00 0.00 0.00 55 1008.6
20260508155504 60 0 1.0 6.0 0.00 0.00 0.00 53 1008.6
20260508154504 59 0 1.0 3.0 0.00 0.00 0.00 56 1008.7
20260508154004 59 0 2.0 8.0 0.00 0.00 0.00 59 1008.8
20260508153004 57 0 1.0 3.0 0.00 0.00 0.00 58 1008.8
20260508152504 57 0 1.0 3.0 0.00 0.01 0.00 60 1008.9
20260508152004 57 0 3.0 6.0 0.00 0.01 0.00 59 1008.9
20260508151004 56 0 2.0 5.0 0.00 0.02 0.00 63 1009.2
20260508145503 55 0 3.0 5.0 0.00 0.04 0.00 64 1009.1
20260508145004 55 0 3.0 6.0 0.00 0.04 0.00 68 1009.2
20260508144504 53 0 1.0 6.0 0.00 0.05 0.00 70 1009.4
20260508144004 52 0 1.0 3.0 0.00 0.05 0.00 72 1009.4
20260508143004 50 0 2.0 3.0 0.00 0.07 0.00 78 1009.5
20260508142504 49 0 2.0 6.0 0.00 0.08 0.00 81 1009.6
20260508142004 48 0 2.0 5.0 0.00 0.08 0.00 84 1009.6
20260508141504 47 0 1.0 3.0 0.00 0.09 0.00 85 1009.7
20260508140003 46 0 2.0 5.0 0.00 0.36 0.00 88 1010.0
20260508135003 45 0 1.0 3.0 0.00 0.36 0.00 90 1010.1
20260508134504 45 0 2.0 3.0 0.00 0.36 0.00 90 1010.1
20260508134004 44 0 1.0 3.0 0.00 0.36 0.00 90 1010.2
20260508133504 44 0 1.0 3.0 0.00 0.36 0.00 91 1010.2
20260508133004 44 0 0.0 3.0 0.00 0.36 0.00 91 1010.3
20260508132503 43 0 0.0 1.0 0.00 0.36 0.00 91 1010.4
20260508131504 43 0 0.0 0.0 0.00 0.36 0.00 91 1010.4
20260508131004 43 0 0.0 0.0 0.00 0.36 0.00 91 1010.5
20260508130503 43 0 0.0 0.0 0.00 0.36 0.00 90 1010.5
20260508125504 42 0 0.0 0.0 0.00 0.36 0.00 90 1010.3
20260508124504 42 0 0.0 3.0 0.00 0.36 0.00 90 1010.5
20260508124004 42 0 1.0 3.0 0.00 0.36 0.00 90 1010.5
20260508123503 42 0 2.0 8.0 0.00 0.36 0.00 90 1010.5
20260508122503 42 0 0.0 1.0 0.00 0.36 0.00 89 1010.3
20260508122003 41 0 0.0 0.0 0.00 0.36 0.00 89 1010.1
20260508121503 41 0 0.0 1.0 0.00 0.36 0.00 89 1010.0
20260508121004 41 0 0.0 1.0 0.00 0.36 0.00 88 1009.6
20260508120503 41 0 0.0 3.0 0.00 0.36 0.00 87 1009.3
20260508120005 41 0 0.0 1.0 0.00 0.36 0.00 87 1009.2
20260508115504 41 0 0.0 1.0 0.00 0.36 0.00 87 1009.5
20260508115005 41 0 0.0 0.0 0.00 0.36 0.00 87 1009.4
20260508114005 41 0 0.0 0.0 0.00 0.36 0.00 87 1009.2
20260508113505 42 0 0.0 0.0 0.00 0.36 0.00 87 1009.2
20260508113005 42 0 0.0 0.0 0.00 0.36 0.00 87 1009.2
20260508112505 42 0 0.0 0.0 0.00 0.36 0.00 87 1009.0
20260508112005 42 0 0.0 0.0 0.00 0.36 0.00 87 1009.0
20260508111504 42 0 0.0 2.0 0.00 0.36 0.00 87 1009.0
20260508111005 42 0 0.0 3.0 0.00 0.36 0.00 86 1008.9
20260508110505 42 0 1.0 3.0 0.00 0.36 0.00 86 1008.9
20260508110005 42 0 0.0 0.0 0.00 0.36 0.00 86 1008.8
20260508105005 42 0 1.0 2.0 0.00 0.36 0.00 85 1008.7
20260508104005 42 0 0.0 1.0 0.00 0.36 0.00 84 1008.6
20260508103505 42 0 0.0 2.0 0.00 0.36 0.00 84 1008.5
20260508103005 43 0 1.0 2.0 0.00 0.36 0.00 84 1008.3
20260508102505 43 0 0.0 0.0 0.00 0.36 0.00 84 1008.0
20260508102005 43 0 0.0 0.0 0.00 0.36 0.00 84 1007.9
20260508101004 43 0 0.0 0.0 0.00 0.36 0.00 83 1008.0
20260508100504 43 0 0.0 0.0 0.00 0.36 0.00 83 1008.0
20260508100005 44 0 0.0 0.0 0.00 0.36 0.00 83 1008.1
20260508095505 44 0 0.0 0.0 0.00 0.36 0.00 82 1008.2
20260508095005 44 0 0.0 0.0 0.00 0.36 0.00 82 1008.1
20260508094504 44 0 0.0 0.0 0.00 0.36 0.00 82 1008.1
20260508094005 44 0 0.0 0.0 0.00 0.36 0.00 82 1008.1
20260508093504 45 0 0.0 0.0 0.00 0.36 0.00 81 1008.1
20260508093005 45 0 0.0 0.0 0.00 0.36 0.00 81 1008.2
20260508092505 45 0 0.0 0.0 0.00 0.36 0.00 81 1008.3
20260508092005 45 0 0.0 0.0 0.00 0.36 0.00 80 1008.3
20260508091505 45 0 0.0 0.0 0.00 0.36 0.00 80 1008.3
20260508091005 45 0 0.0 0.0 0.00 0.36 0.00 80 1008.5
20260508090505 45 0 0.0 0.0 0.00 0.36 0.00 79 1008.5
20260508090005 46 0 0.0 1.0 0.00 0.36 0.00 79 1008.5
20260508085005 46 0 0.0 1.0 0.00 0.36 0.00 78 1008.6
20260508084505 46 0 0.0 1.0 0.00 0.36 0.00 78 1008.6
20260508083505 46 0 0.0 0.0 0.00 0.36 0.00 77 1008.8
20260508083005 46 0 0.0 0.0 0.00 0.36 0.00 77 1008.8
20260508082504 46 0 0.0 2.0 0.00 0.36 0.00 77 1008.9
20260508082005 46 0 0.0 1.0 0.00 0.36 0.00 77 1008.9
20260508081504 47 0 0.0 2.0 0.00 0.36 0.00 77 1008.9
20260508081004 47 0 0.0 1.0 0.00 0.36 0.00 77 1009.1
20260508080505 47 0 0.0 2.0 0.00 0.36 0.00 76 1009.3
20260508080004 47 0 0.0 1.0 0.00 0.36 0.00 75 1009.4
20260508075505 47 0 1.0 2.0 0.00 0.36 0.00 74 1009.5
20260508075004 47 0 0.0 1.0 0.00 0.36 0.00 73 1009.4
20260508074504 48 0 0.0 2.0 0.00 0.36 0.00 73 1009.5
20260508074006 48 0 0.0 1.0 0.00 0.36 0.00 72 1009.5
20260508073504 48 0 0.0 0.0 0.00 0.36 0.00 72 1009.5
20260508073005 48 0 1.0 2.0 0.00 0.36 0.00 72 1009.4
20260508072505 49 0 0.0 1.0 0.00 0.36 0.00 71 1009.3
20260508072005 49 0 0.0 0.0 0.00 0.36 0.00 71 1009.3
20260508071504 50 0 0.0 0.0 0.00 0.36 0.00 69 1009.3
20260508071005 50 0 0.0 0.0 0.00 0.36 0.00 68 1009.3
20260508070505 50 0 0.0 1.0 0.00 0.36 0.00 67 1009.2
20260508070005 51 0 0.0 0.0 0.00 0.36 0.00 67 1009.2
20260508065504 51 0 0.0 0.0 0.00 0.36 0.00 66 1009.3
20260508065004 51 0 0.0 0.0 0.00 0.36 0.00 66 1009.4
20260508064504 51 0 0.0 0.0 0.00 0.36 0.00 65 1009.3
20260508064005 52 0 0.0 0.0 0.00 0.37 0.00 65 1009.4
20260508063504 52 0 0.0 0.0 0.00 0.37 0.00 64 1009.2
20260508063005 52 0 0.0 0.0 0.00 0.37 0.00 64 1009.3
20260508062505 52 0 0.0 0.0 0.00 0.37 0.00 64 1009.1
20260508062005 52 0 0.0 1.0 0.00 0.37 0.00 64 1009.2
20260508061505 52 0 1.0 5.0 0.00 0.37 0.00 64 1009.2
20260508060005 53 0 1.0 3.0 0.00 0.37 0.00 63 1010.0
20260508055504 53 0 2.0 6.0 0.00 0.37 0.37 63 1010.0
20260508055005 53 0 3.0 12.0 0.00 0.37 0.37 63 1010.4
20260508054504 53 0 2.0 6.0 0.00 0.37 0.37 63 1010.2
20260508053504 54 0 0.0 1.0 0.00 0.37 0.37 61 1009.2
20260508052505 54 0 0.0 0.0 0.00 0.37 0.37 59 1009.0
20260508052005 54 0 0.0 1.0 0.00 0.37 0.37 59 1009.2
20260508051504 55 0 0.0 0.0 0.00 0.37 0.37 58 1009.0
20260508050505 55 0 0.0 1.0 0.00 0.37 0.37 58 1009.1
20260508050004 55 0 0.0 1.0 0.00 0.37 0.37 57 1009.1
20260508045505 55 0 0.0 1.0 0.00 0.37 0.37 57 1009.1
20260508045005 55 0 0.0 1.0 0.00 0.37 0.37 57 1009.0
20260508044504 55 0 0.0 1.0 0.00 0.37 0.37 56 1009.2
20260508044004 55 0 1.0 9.0 0.00 0.37 0.37 56 1009.4
20260508043505 56 0 1.0 6.0 0.00 0.37 0.37 56 1009.4
20260508043004 56 0 3.0 12.0 0.00 0.37 0.37 54 1009.8
20260508042005 56 0 5.0 10.0 0.00 0.37 0.37 52 1009.7
20260508041004 56 0 4.0 10.0 0.00 0.37 0.37 51 1009.0
20260508040005 57 0 1.0 2.0 0.00 0.37 0.37 49 1009.1
20260508035505 57 0 0.0 1.0 0.00 0.37 0.37 49 1009.0
20260508035004 57 0 0.0 1.0 0.00 0.37 0.37 48 1009.0
20260508034504 57 0 0.0 1.0 0.00 0.37 0.37 48 1009.0
20260508034004 57 0 0.0 2.0 0.00 0.37 0.37 47 1009.0
20260508033504 58 0 1.0 2.0 0.00 0.37 0.37 47 1009.0
20260508033005 58 0 1.0 3.0 0.00 0.37 0.37 47 1008.9
20260508032504 58 0 3.0 6.0 0.00 0.37 0.37 46 1008.9
20260508032004 58 0 2.0 3.0 0.00 0.38 0.37 46 1009.0
20260508031504 58 0 0.0 1.0 0.00 0.38 0.37 46 1009.0
20260508031005 59 0 1.0 3.0 0.00 0.38 0.37 45 1009.0
20260508030505 59 0 2.0 6.0 0.00 0.38 0.37 45 1009.0
20260508030005 59 0 1.0 8.0 0.00 0.38 0.37 44 1009.0
20260508024505 60 0 0.0 2.0 0.00 0.38 0.37 43 1009.0
20260508024004 60 0 0.0 2.0 0.00 0.38 0.37 42 1009.1
20260508023504 60 0 1.0 3.0 0.00 0.38 0.37 42 1009.1
20260508023004 61 0 1.0 3.0 0.00 0.38 0.37 41 1009.2
20260508022505 61 0 1.0 2.0 0.00 0.38 0.37 41 1009.2
20260508022004 61 0 1.0 3.0 0.00 0.38 0.37 41 1009.2
20260508021504 61 0 1.0 3.0 0.00 0.38 0.37 40 1009.3
20260508021005 62 0 5.0 12.0 0.00 0.38 0.37 39 1009.2
20260508020004 62 0 5.0 10.0 0.00 0.38 0.37 38 1009.0
20260508015505 62 0 3.0 9.0 0.00 0.38 0.37 36 1009.0
20260508015004 63 0 2.0 6.0 0.00 0.38 0.37 36 1008.9
20260508014005 63 0 1.0 6.0 0.00 0.38 0.37 37 1008.4
20260508013505 63 0 2.0 12.0 0.00 0.38 0.37 36 1008.2
20260508013004 64 0 2.0 6.0 0.00 0.39 0.37 37 1008.3
20260508012504 64 0 0.0 1.0 0.00 0.39 0.37 38 1008.2
20260508012004 64 0 0.0 0.0 0.00 0.39 0.37 37 1008.0
20260508011504 64 0 0.0 0.0 0.00 0.39 0.37 37 1008.0
20260508011004 65 0 0.0 0.0 0.00 0.39 0.37 32 1007.8
20260508010005 65 0 0.0 1.0 0.00 0.39 0.37 33 1007.8
20260508005504 65 0 0.0 1.0 0.00 0.39 0.37 32 1007.8
20260508005005 65 0 0.0 0.0 0.00 0.40 0.37 32 1007.7
20260508004504 66 0 0.0 0.0 0.00 0.40 0.37 32 1007.7
20260508004005 66 0 0.0 1.0 0.00 0.40 0.37 31 1007.7
20260508003504 66 0 0.0 0.0 0.00 0.40 0.37 31 1007.6
20260508003005 66 0 0.0 0.0 0.00 0.40 0.37 32 1007.6
20260508002504 67 0 0.0 0.0 0.00 0.40 0.37 29 1007.7
20260508002004 67 0 0.0 1.0 0.00 0.40 0.37 29 1007.8
20260508001504 67 0 0.0 1.0 0.00 0.40 0.37 30 1007.9
20260508000004 67 0 1.0 2.0 0.00 0.41 0.37 29 1008.0